Wind_Speed
42 41 40 40 39 38 35 32 31 30 29 28 26 25 24 23 22 20 18 17 16 16 15 14 13 12 11 11 10 10 9 9 9 10 10 10 10 10 10 10 10 11 11 11 12 12 12 13 13
44 42 42 42 42 40 37 34 32 31 30 29 28 27 26 25 23 21 19 18 17 17 16 15 15 14 13 12 11 11 10 10 10 10 10 10 10 10 10 11 11 11 12 12 12 12 12 13 13
44 44 44 44 43 40 38 36 35 33 33 32 30 29 28 26 24 23 21 20 19 18 18 16 15 15 14 13 12 12 11 11 11 11 11 11 11 11 11 12 12 12 13 13 13 13 13 13 14
45 45 46 46 44 41 39 38 37 36 35 34 32 31 30 28 26 25 23 22 21 20 19 17 16 15 15 14 13 13 13 12 12 12 12 12 12 12 13 13 13 13 13 13 13 14 14 15 15
46 47 48 47 44 42 41 40 38 37 36 35 34 33 31 29 28 26 25 23 22 21 20 19 18 17 16 15 15 14 14 14 13 13 13 13 13 13 14 14 15 15 14 14 14 15 16 16 17
47 48 48 46 44 43 42 41 40 39 38 36 35 34 32 30 29 28 26 25 24 23 22 21 20 18 17 17 16 16 15 15 15 15 14 15 14 14 15 15 15 16 15 16 16 16 17 17 17
47 48 47 46 44 43 42 42 42 41 40 38 37 36 33 31 30 29 28 27 26 24 23 22 21 20 19 18 18 17 16 16 16 16 16 16 16 15 15 16 16 16 16 17 17 17 18 18 18
49 49 48 46 46 44 42 43 43 42 41 40 39 37 34 32 32 30 29 28 28 26 25 24 23 22 21 20 19 19 18 18 17 17 17 17 17 17 17 17 17 17 18 18 18 18 18 18 18
50 50 49 46 46 45 42 43 43 43 42 41 40 38 36 34 33 32 31 30 29 28 27 26 25 24 23 22 21 20 20 19 18 18 18 18 19 18 18 18 18 18 18 19 19 19 19 19 20
50 51 48 46 46 45 44 44 44 43 42 42 41 40 38 36 34 33 32 31 30 29 28 27 26 25 25 24 23 22 21 20 20 19 20 20 19 19 19 19 19 19 19 19 20 20 20 20 20
51 50 47 47 46 46 45 45 45 44 44 42 41 40 39 38 37 35 33 32 32 31 30 29 28 27 26 25 24 23 22 22 21 21 21 21 20 20 20 20 20 20 20 21 21 21 21 21 21
50 49 48 47 47 47 47 46 45 45 45 43 42 41 40 38 38 37 35 34 33 32 31 30 29 28 27 26 25 24 24 23 22 22 22 22 22 21 21 21 21 21 22 22 22 22 22 22 23
49 49 49 48 48 48 47 47 46 46 46 45 44 42 41 40 39 39 37 36 35 34 33 31 30 29 28 27 26 26 25 24 24 23 23 23 23 23 23 22 22 23 23 23 23 23 23 23 24
48 49 49 49 49 49 48 48 48 47 46 46 45 44 42 41 41 40 39 37 36 35 34 33 32 31 29 29 28 27 26 26 25 25 25 24 24 24 24 24 24 24 24 25 24 24 24 25 26
49 49 50 49 49 49 49 49 48 47 47 46 46 45 44 42 41 40 39 38 37 36 36 35 34 32 31 30 30 29 28 28 27 26 26 26 26 25 25 25 25 25 25 25 26 26 26 26 27
50 51 52 51 49 49 50 50 47 47 47 47 46 46 46 44 42 41 40 39 38 38 37 36 35 33 32 32 31 30 30 29 28 28 27 27 27 27 26 27 26 26 26 27 27 28 28 28 28
51 52 52 51 50 50 50 49 48 48 47 46 46 46 46 45 44 42 41 40 39 38 38 37 35 34 33 32 32 32 31 31 30 29 29 28 28 28 28 27 27 28 28 28 28 29 29 29 30
49 51 51 51 50 50 50 49 48 48 48 47 47 46 46 46 44 43 43 41 40 39 39 38 37 35 34 33 33 32 32 32 31 31 30 30 30 29 29 29 29 29 29 29 30 30 31 31 32
46 48 49 49 50 50 50 49 48 49 48 47 47 47 47 46 45 44 44 43 42 40 39 39 38 37 35 35 34 34 34 33 33 33 32 31 31 30 30 30 30 30 30 30 31 31 32 32 33
45 47 47 48 48 49 49 49 49 49 48 47 47 46 46 46 46 45 44 44 43 41 41 40 39 38 36 35 35 35 35 35 34 33 32 32 32 31 31 31 31 31 31 31 31 32 33 34 34
42 44 45 46 47 48 48 49 49 49 49 48 47 46 46 45 45 45 45 44 43 42 41 41 40 38 38 37 37 37 36 36 36 35 34 33 33 32 32 32 31 32 32 33 33 34 34 34 35
39 41 43 44 46 48 49 49 48 48 48 48 47 47 45 44 44 43 43 44 43 42 42 42 41 40 39 38 38 37 37 36 36 35 35 34 34 33 33 33 33 33 33 34 34 35 35 36 36
38 38 39 42 45 47 47 49 49 48 48 47 47 46 45 44 43 43 43 43 43 43 43 42 42 41 40 40 39 38 37 37 36 36 35 35 34 34 34 34 34 34 34 35 36 36 37 37 38
37 37 37 39 42 46 46 48 48 47 45 45 45 45 44 44 44 44 44 44 44 44 44 43 42 41 41 41 40 39 38 38 37 36 36 36 35 35 35 35 35 36 36 37 37 38 38 38 38
38 38 37 39 41 44 44 45 46 44 44 44 44 44 44 44 44 43 43 43 43 43 44 43 43 42 42 41 41 40 39 39 38 38 37 37 37 36 36 37 37 37 37 38 38 38 39 40 40
38 39 39 40 42 43 43 44 44 43 42 42 43 44 44 44 44 43 43 42 43 43 43 43 43 43 42 42 41 40 40 39 39 39 38 38 38 38 38 38 38 38 38 38 39 39 40 41 41
35 37 37 37 40 41 43 43 43 42 41 41 42 43 44 44 43 43 43 42 42 42 42 43 43 43 42 42 42 41 41 40 40 40 39 39 39 39 39 39 39 39 39 40 40 40 41 42 42
33 34 35 35 37 40 41 42 41 40 39 40 41 42 42 42 42 42 42 42 41 41 42 42 42 42 43 43 43 42 42 42 41 41 40 40 40 40 40 40 40 40 40 41 41 41 42 43 44
33 33 34 34 36 38 40 41 40 38 38 38 39 40 40 41 41 41 41 41 41 41 42 41 41 42 42 43 43 43 43 43 43 42 42 42 42 41 41 41 41 41 42 42 42 42 43 43 44
32 34 35 33 34 36 38 38 38 38 37 37 37 38 38 39 39 39 39 40 41 41 42 41 41 42 42 42 43 44 44 43 43 43 43 43 42 42 42 41 42 42 43 43 43 43 43 44 44
Wind_Direction
230 229 229 229 228 228 228 227 226 226 226 226 226 226 225 224 225 226 225 225 227 228 229 230 234 236 238 242 248 252 257 263 267 270 272 276 282 287 290 294 298 300 302 304 306 307 306 306 309
230 229 229 230 229 228 228 227 226 226 227 227 226 226 227 226 225 226 227 226 227 229 230 231 234 236 238 242 247 252 256 261 264 269 272 275 281 286 290 293 295 298 300 302 304 305 306 306 307
230 229 229 230 229 228 228 227 226 226 226 226 226 226 227 227 226 227 227 227 228 229 230 232 234 236 238 242 247 251 256 260 263 266 270 274 279 283 288 292 294 297 298 300 301 302 303 305 305
230 230 230 230 229 228 228 228 227 226 225 226 227 227 227 227 226 227 228 229 229 230 231 232 234 236 238 243 248 253 255 259 261 266 271 273 277 281 286 290 293 294 296 297 298 299 300 302 302
230 230 230 230 228 227 227 227 226 226 226 226 227 228 228 227 227 227 228 229 230 230 231 232 234 237 240 243 248 252 255 258 261 265 270 273 276 280 284 288 291 292 293 294 296 297 297 299 300
231 231 231 230 228 227 226 226 225 225 225 226 227 227 228 227 227 227 227 229 230 230 231 232 234 237 241 245 249 252 254 257 260 263 268 271 275 279 283 287 289 291 292 294 296 296 296 297 298
232 232 233 231 228 226 225 225 225 225 225 225 226 227 227 227 227 227 227 229 230 231 232 234 236 240 243 246 248 251 254 257 260 263 267 270 274 278 282 285 287 288 291 293 295 295 295 296 297
232 233 232 230 227 225 224 224 225 224 225 226 225 226 226 227 227 227 227 229 231 232 234 236 238 241 244 247 249 251 253 256 260 263 266 270 273 277 280 283 284 287 289 291 293 293 294 296 296
231 232 231 230 228 225 223 224 224 224 225 225 226 226 225 226 227 227 228 229 231 233 235 238 240 242 244 247 250 251 254 257 260 263 266 269 272 274 277 280 283 286 288 290 291 291 292 294 294
230 231 231 230 228 226 224 224 224 225 224 224 226 225 225 226 227 228 229 231 233 234 236 238 241 242 244 247 250 251 254 257 259 262 265 268 271 273 276 278 281 284 287 288 290 290 291 293 294
229 230 229 228 227 226 225 224 224 224 224 224 226 226 226 227 228 229 230 231 233 234 236 238 240 242 244 246 249 251 254 256 258 261 264 267 270 272 274 276 280 282 285 287 289 290 290 292 294
228 228 227 226 226 226 226 226 225 225 224 225 225 226 226 227 229 230 231 232 233 235 236 238 240 242 244 246 248 250 253 256 258 261 264 266 268 271 273 275 278 280 283 286 288 288 290 291 293
227 226 225 225 225 226 226 226 226 224 225 225 225 226 227 228 229 230 231 233 234 235 237 238 240 241 243 246 248 250 253 256 258 260 263 265 267 269 271 273 276 278 281 283 285 287 289 291 293
226 224 223 223 224 226 226 226 225 224 225 225 225 225 227 228 229 230 231 234 235 236 237 238 239 241 243 245 247 250 253 255 257 260 262 264 267 269 271 273 276 278 280 282 284 286 288 291 293
224 223 222 222 223 225 226 226 225 224 225 225 225 225 226 228 229 229 231 233 234 236 236 237 239 241 243 245 247 250 252 255 257 260 262 263 266 268 271 273 275 278 280 281 282 284 286 289 292
222 222 222 221 222 224 225 226 225 225 226 226 225 225 226 228 229 230 231 233 235 236 237 239 241 242 244 246 248 249 252 254 256 258 261 263 265 267 271 273 274 276 278 279 281 283 286 288 291
222 222 222 221 222 224 225 225 224 225 226 226 225 226 226 228 229 230 231 232 234 236 238 240 241 242 244 246 248 250 252 254 256 258 260 263 265 267 269 272 274 276 278 279 280 282 285 287 290
223 224 223 223 223 224 225 225 224 225 226 227 226 226 227 228 229 230 231 232 234 236 239 240 241 242 243 245 248 250 253 255 256 258 260 262 264 266 269 271 273 276 277 279 281 283 284 286 289
223 223 223 224 224 225 226 226 225 225 226 227 227 227 227 228 229 230 231 233 234 236 238 240 241 243 243 245 247 249 252 255 257 259 260 262 264 266 269 272 273 275 277 279 281 283 286 288 289
222 221 221 223 225 226 226 226 226 225 226 227 226 226 227 228 228 229 231 232 234 236 238 240 241 242 243 245 247 249 252 255 257 259 261 263 264 266 268 271 273 275 277 279 281 284 287 290 291
220 220 221 222 223 225 226 226 225 225 225 226 227 226 227 227 228 229 230 232 234 236 238 239 240 242 243 245 247 249 252 255 257 259 260 262 264 265 267 270 273 276 278 280 283 285 288 290 292
219 219 220 222 223 224 226 226 225 225 226 226 227 227 227 228 229 229 230 232 234 235 237 238 240 241 243 245 247 249 251 254 256 257 259 261 263 265 267 270 272 275 278 280 283 285 288 290 292
217 218 220 222 223 225 226 228 226 225 225 226 227 228 228 229 230 230 231 233 234 235 236 237 239 240 242 244 246 248 251 253 254 256 259 260 262 264 267 270 272 275 278 281 283 285 288 290 292
215 217 220 222 223 225 225 229 227 226 226 227 228 229 230 230 231 231 231 232 233 235 236 237 238 240 242 244 246 248 249 251 254 255 258 260 262 265 267 270 272 275 278 280 283 285 287 290 292
213 214 217 221 223 226 224 228 227 226 226 227 227 229 231 231 231 231 232 232 234 235 237 237 238 240 242 245 246 247 249 251 253 255 257 259 262 265 268 270 273 275 278 280 283 285 287 289 291
215 216 218 223 225 226 226 228 228 227 227 227 227 228 230 231 232 232 232 233 235 237 238 239 240 241 243 244 246 248 249 251 253 255 257 259 262 264 267 270 273 275 278 280 283 285 287 288 290
217 216 218 223 226 227 227 228 228 228 228 228 228 229 230 231 232 233 234 234 236 237 239 240 241 242 243 244 246 247 249 251 253 255 257 259 262 264 266 269 272 275 278 280 282 285 287 289 291
216 217 218 221 225 228 228 228 228 228 229 229 229 230 231 232 232 233 234 235 236 237 239 241 242 242 243 243 245 247 249 251 253 254 257 259 261 264 267 269 272 275 278 280 282 284 287 289 291
216 216 219 222 226 227 228 228 228 230 230 230 230 230 231 231 232 233 234 235 236 238 239 241 242 243 244 244 245 247 249 251 253 254 257 258 261 264 267 270 272 275 278 280 282 285 286 288 290
221 220 220 222 227 228 229 228 228 228 229 230 230 230 230 231 232 233 233 235 237 238 240 241 242 244 245 246 247 248 249 251 253 255 257 259 261 264 266 269 272 276 278 280 282 284 286 288 290
Height
5812 5816 5820 5823 5826 5829 5833 5838 5840 5842 5845 5847 5850 5852 5856 5859 5862 5867 5867 5867 5869 5870 5872 5873 5874 5875 5876 5877 5878 5879 5879 5880 5880 5880 5880 5880 5880 5880 5880 5879 5878 5878 5877 5876 5875 5874 5873 5872 5871
5805 5809 5813 5816 5819 5823 5828 5832 5835 5837 5840 5842 5845 5848 5851 5854 5858 5861 5862 5864 5866 5867 5869 5870 5872 5873 5874 5875 5876 5877 5878 5878 5879 5879 5879 5879 5879 5878 5878 5877 5877 5876 5875 5874 5874 5873 5871 5871 5870
5797 5801 5805 5808 5811 5817 5822 5826 5829 5831 5834 5837 5840 5843 5846 5850 5854 5856 5859 5861 5863 5865 5866 5868 5870 5871 5872 5873 5874 5875 5876 5876 5877 5877 5877 5877 5877 5877 5876 5876 5875 5874 5873 5873 5872 5871 5870 5869 5868
5789 5793 5797 5801 5805 5811 5816 5820 5823 5825 5828 5832 5835 5839 5842 5846 5850 5852 5855 5857 5859 5862 5864 5865 5867 5868 5870 5871 5872 5873 5874 5874 5875 5875 5875 5875 5875 5875 5874 5874 5873 5872 5871 5871 5870 5869 5868 5866 5865
5780 5784 5788 5793 5799 5804 5808 5812 5816 5819 5823 5827 5830 5834 5837 5842 5845 5848 5851 5854 5856 5858 5860 5862 5864 5866 5867 5868 5870 5871 5871 5872 5872 5872 5873 5873 5873 5872 5872 5871 5871 5870 5869 5868 5867 5866 5865 5864 5863
5772 5776 5780 5786 5792 5797 5802 5805 5809 5814 5817 5821 5825 5829 5833 5837 5840 5844 5847 5850 5852 5855 5857 5859 5861 5863 5864 5866 5867 5868 5869 5869 5870 5870 5870 5870 5870 5870 5870 5869 5868 5867 5867 5866 5865 5864 5862 5861 5860
5764 5768 5773 5779 5785 5790 5795 5798 5803 5807 5811 5816 5820 5824 5828 5832 5836 5839 5843 5845 5848 5851 5853 5856 5858 5859 5861 5862 5864 5865 5866 5866 5867 5867 5868 5868 5867 5867 5867 5866 5866 5865 5864 5863 5862 5861 5859 5858 5857
5755 5760 5764 5770 5777 5783 5788 5792 5796 5801 5805 5810 5814 5819 5823 5828 5831 5834 5838 5841 5844 5847 5849 5852 5854 5856 5858 5859 5860 5861 5862 5863 5864 5865 5865 5865 5864 5864 5864 5863 5863 5862 5861 5860 5859 5858 5856 5855 5853
5745 5751 5756 5763 5770 5776 5781 5784 5789 5794 5799 5803 5809 5814 5818 5822 5826 5830 5833 5836 5839 5842 5845 5847 5850 5852 5854 5855 5857 5858 5859 5860 5861 5861 5862 5861 5861 5861 5861 5860 5859 5859 5858 5857 5855 5854 5853 5851 5850
5735 5741 5750 5757 5762 5768 5773 5777 5782 5787 5792 5797 5802 5808 5812 5816 5820 5824 5828 5832 5835 5838 5840 5843 5845 5847 5849 5851 5852 5854 5855 5856 5857 5858 5858 5858 5858 5858 5857 5857 5856 5855 5854 5853 5852 5851 5849 5848 5846
5727 5735 5743 5748 5753 5759 5764 5769 5774 5780 5786 5791 5796 5801 5806 5810 5815 5819 5823 5827 5830 5833 5835 5838 5840 5843 5845 5846 5848 5850 5851 5852 5853 5854 5854 5854 5854 5854 5854 5853 5852 5851 5850 5849 5848 5847 5845 5844 5842
5719 5727 5733 5739 5744 5750 5756 5762 5767 5773 5780 5785 5789 5794 5799 5803 5808 5813 5817 5821 5824 5827 5830 5833 5835 5838 5840 5842 5844 5845 5847 5848 5849 5849 5850 5850 5850 5850 5849 5849 5848 5847 5846 5845 5844 5843 5841 5840 5838
5711 5718 5724 5730 5736 5742 5748 5754 5759 5765 5771 5777 5782 5788 5793 5796 5801 5806 5811 5815 5818 5821 5824 5827 5830 5833 5835 5837 5839 5840 5842 5843 5844 5845 5845 5845 5845 5845 5845 5845 5844 5843 5842 5841 5840 5838 5837 5835 5834
5703 5709 5715 5721 5727 5733 5739 5746 5751 5758 5763 5770 5775 5781 5785 5790 5794 5799 5804 5808 5812 5816 5818 5821 5825 5827 5830 5832 5833 5835 5837 5838 5839 5840 5840 5840 5841 5841 5840 5840 5839 5839 5837 5836 5835 5834 5832 5831 5829
5693 5699 5705 5712 5718 5724 5731 5737 5744 5751 5756 5762 5768 5773 5778 5783 5788 5792 5797 5802 5806 5809 5812 5815 5819 5821 5824 5826 5828 5830 5831 5832 5834 5834 5835 5835 5835 5835 5835 5835 5834 5833 5832 5831 5830 5829 5827 5826 5824
5682 5688 5695 5704 5710 5716 5723 5730 5737 5742 5748 5754 5760 5765 5771 5776 5781 5786 5790 5795 5799 5802 5806 5809 5812 5815 5818 5820 5822 5824 5825 5827 5828 5829 5830 5830 5830 5830 5830 5829 5829 5828 5827 5826 5825 5824 5822 5820 5819
5671 5679 5688 5696 5702 5707 5713 5722 5729 5734 5740 5746 5751 5757 5763 5768 5773 5778 5783 5787 5791 5795 5799 5802 5805 5808 5811 5814 5815 5817 5819 5820 5822 5823 5824 5824 5824 5824 5824 5824 5823 5822 5821 5820 5819 5818 5817 5815 5813
5666 5673 5681 5688 5694 5699 5705 5714 5721 5726 5731 5738 5743 5749 5755 5761 5766 5771 5775 5779 5784 5788 5791 5795 5798 5801 5804 5807 5809 5811 5812 5814 5815 5817 5817 5818 5818 5818 5818 5818 5817 5816 5816 5814 5813 5812 5810 5808 5807
5659 5666 5673 5680 5686 5692 5698 5705 5711 5717 5722 5729 5735 5741 5747 5753 5758 5762 5767 5771 5776 5780 5784 5787 5791 5794 5797 5800 5802 5804 5806 5807 5809 5810 5811 5812 5812 5812 5812 5811 5811 5810 5809 5808 5807 5805 5804 5802 5800
5649 5656 5664 5671 5677 5683 5689 5695 5702 5708 5714 5721 5727 5733 5738 5744 5749 5754 5758 5763 5768 5772 5776 5780 5783 5786 5790 5792 5795 5797 5798 5800 5802 5803 5804 5805 5805 5805 5805 5805 5804 5804 5803 5802 5800 5799 5797 5795 5792
5641 5649 5657 5663 5669 5673 5680 5685 5692 5699 5705 5712 5718 5724 5730 5735 5741 5746 5750 5755 5760 5764 5768 5772 5775 5778 5782 5785 5787 5789 5791 5793 5794 5796 5797 5797 5798 5798 5798 5798 5797 5797 5796 5795 5793 5792 5790 5788 5785
5635 5642 5649 5654 5659 5664 5671 5676 5684 5691 5697 5704 5710 5716 5722 5728 5733 5737 5742 5747 5751 5755 5759 5763 5767 5770 5773 5776 5779 5781 5784 5786 5787 5788 5789 5790 5790 5791 5791 5791 5790 5790 5789 5787 5786 5784 5782 5780 5777
5629 5635 5641 5646 5651 5657 5662 5668 5676 5682 5689 5697 5703 5709 5715 5720 5725 5729 5734 5738 5742 5747 5751 5754 5758 5761 5765 5768 5771 5773 5776 5778 5779 5780 5782 5783 5783 5783 5783 5783 5783 5782 5781 5780 5778 5776 5774 5772 5769
5622 5628 5633 5637 5641 5647 5654 5659 5667 5674 5683 5690 5696 5701 5706 5711 5716 5721 5725 5729 5733 5738 5742 5745 5749 5753 5756 5759 5762 5765 5767 5769 5771 5773 5774 5775 5775 5776 5776 5776 5775 5774 5773 5772 5770 5768 5766 5764 5761
5614 5621 5626 5629 5632 5638 5647 5651 5659 5668 5675 5682 5688 5693 5697 5702 5707 5712 5716 5721 5725 5729 5733 5737 5741 5744 5747 5750 5753 5756 5759 5761 5763 5764 5766 5766 5767 5768 5768 5767 5767 5766 5765 5763 5762 5760 5758 5755 5752
5607 5613 5619 5623 5627 5633 5639 5643 5652 5660 5666 5672 5678 5683 5688 5693 5698 5703 5708 5712 5716 5720 5724 5728 5732 5735 5738 5742 5745 5747 5750 5752 5754 5756 5757 5758 5759 5759 5759 5759 5758 5758 5756 5755 5753 5751 5749 5746 5744
5601 5606 5612 5617 5621 5626 5630 5637 5645 5651 5657 5663 5669 5674 5679 5684 5689 5694 5699 5703 5707 5711 5715 5719 5723 5726 5729 5733 5735 5738 5741 5743 5745 5746 5748 5749 5750 5750 5751 5750 5750 5749 5747 5746 5744 5742 5740 5737 5734
5596 5601 5605 5609 5613 5618 5624 5629 5637 5644 5650 5656 5661 5666 5671 5676 5680 5685 5689 5694 5698 5702 5705 5709 5713 5717 5720 5723 5726 5729 5731 5733 5735 5737 5739 5740 5740 5741 5741 5741 5741 5740 5738 5737 5735 5733 5731 5728 5725
5590 5595 5598 5603 5607 5612 5616 5625 5630 5637 5642 5648 5653 5658 5662 5667 5672 5676 5681 5685 5689 5693 5696 5700 5703 5707 5710 5713 5716 5719 5721 5724 5725 5727 5729 5730 5731 5731 5732 5732 5731 5730 5729 5727 5726 5724 5721 5718 5715
5584 5589 5593 5598 5602 5606 5611 5620 5623 5629 5634 5639 5644 5649 5654 5659 5663 5667 5672 5676 5680 5684 5687 5691 5694 5697 5700 5703 5706 5709 5711 5714 5715 5717 5719 5720 5721 5722 5722 5722 5721 5721 5719 5718 5716 5714 5711 5708 5705